| time (UTC) | temp F | wind direction | speed MPH | gust MPH | rain 1hr in | rain 24hr in | rain mn in | humidity % | barometer mb |
| 20260506113204 | 60 | 227 | 4.0 | 11.0 | 0.00 | 0.00 | 0.00 | 71 | 1001.4 |
| 20260506112705 | 60 | 214 | 4.0 | 9.0 | 0.00 | 0.00 | 0.00 | 71 | 1001.3 |
| 20260506112500 | 60 | 178 | 4.0 | 8.0 | 0.00 | 0.00 | 0.00 | 71 | 1001.4 |
| 20260506111703 | 60 | 170 | 3.0 | 7.0 | 0.00 | 0.00 | 0.00 | 71 | 1001.4 |
| 20260506111205 | 60 | 202 | 3.0 | 6.0 | 0.00 | 0.00 | 0.00 | 70 | 1001.5 |
| 20260506110704 | 60 | 203 | 3.0 | 6.0 | 0.00 | 0.00 | 0.00 | 70 | 1001.4 |
| 20260506110203 | 60 | 210 | 3.0 | 5.0 | 0.00 | 0.00 | 0.00 | 70 | 1001.4 |
| 20260506105702 | 60 | 223 | 3.0 | 6.0 | 0.00 | 0.00 | 0.00 | 70 | 1001.4 |
| 20260506105202 | 60 | 240 | 4.0 | 7.0 | 0.00 | 0.00 | 0.00 | 70 | 1001.3 |
| 20260506104702 | 60 | 219 | 3.0 | 7.0 | 0.00 | 0.00 | 0.00 | 70 | 1001.2 |
| 20260506104202 | 60 | 253 | 3.0 | 8.0 | 0.00 | 0.00 | 0.00 | 70 | 1001.0 |
| 20260506104000 | 60 | 238 | 3.0 | 8.0 | 0.00 | 0.00 | 0.00 | 69 | 1001.1 |
| 20260506103500 | 60 | 223 | 2.0 | 5.0 | 0.00 | 0.00 | 0.00 | 70 | 1001.0 |
| 20260506102703 | 60 | 209 | 3.0 | 7.0 | 0.00 | 0.00 | 0.00 | 69 | 1001.1 |
| 20260506102202 | 60 | 188 | 2.0 | 7.0 | 0.00 | 0.00 | 0.00 | 68 | 1001.1 |
| 20260506101703 | 60 | 229 | 2.0 | 5.0 | 0.00 | 0.00 | 0.00 | 68 | 1001.0 |
| 20260506101202 | 60 | 213 | 3.0 | 6.0 | 0.00 | 0.00 | 0.00 | 68 | 1000.9 |
| 20260506100959 | 60 | 220 | 3.0 | 7.0 | 0.00 | 0.00 | 0.00 | 68 | 1001.0 |
| 20260506100203 | 60 | 214 | 3.0 | 7.0 | 0.00 | 0.00 | 0.00 | 67 | 1001.1 |
| 20260506095702 | 60 | 213 | 2.0 | 6.0 | 0.00 | 0.00 | 0.00 | 67 | 1001.2 |
| 20260506095203 | 60 | 219 | 2.0 | 5.0 | 0.00 | 0.00 | 0.00 | 66 | 1001.2 |
| 20260506094703 | 60 | 233 | 2.0 | 5.0 | 0.00 | 0.00 | 0.00 | 66 | 1001.2 |
| 20260506094205 | 60 | 150 | 2.0 | 5.0 | 0.00 | 0.00 | 0.00 | 66 | 1001.1 |
| 20260506093701 | 60 | 227 | 2.0 | 5.0 | 0.00 | 0.00 | 0.00 | 65 | 1001.0 |
| 20260506093201 | 60 | 221 | 2.0 | 5.0 | 0.00 | 0.00 | 0.00 | 65 | 1000.9 |
| 20260506092701 | 60 | 227 | 2.0 | 5.0 | 0.00 | 0.00 | 0.00 | 65 | 1000.9 |
| 20260506092201 | 60 | 223 | 2.0 | 7.0 | 0.00 | 0.00 | 0.00 | 65 | 1000.9 |
| 20260506091956 | 60 | 199 | 3.0 | 7.0 | 0.00 | 0.00 | 0.00 | 64 | 1001.0 |
| 20260506091200 | 60 | 233 | 3.0 | 6.0 | 0.00 | 0.00 | 0.00 | 64 | 1001.0 |
| 20260506090701 | 60 | 236 | 3.0 | 6.0 | 0.00 | 0.00 | 0.00 | 64 | 1001.0 |
| 20260506090609 | 60 | 222 | 4.0 | 7.0 | 0.00 | 0.00 | 0.00 | 63 | 1001.2 |
| 20260506090248 | 60 | 238 | 4.0 | 6.0 | 0.00 | 0.00 | 0.00 | 64 | 1001.1 |
| 20260506085506 | 60 | 230 | 3.0 | 7.0 | 0.00 | 0.00 | 0.00 | 64 | 1001.3 |
| 20260506084703 | 60 | 202 | 3.0 | 7.0 | 0.00 | 0.00 | 0.00 | 65 | 1001.3 |
| 20260506084201 | 60 | 231 | 3.0 | 8.0 | 0.00 | 0.00 | 0.00 | 65 | 1001.5 |
| 20260506083701 | 60 | 231 | 4.0 | 8.0 | 0.00 | 0.00 | 0.00 | 65 | 1001.4 |
| 20260506083203 | 60 | 233 | 4.0 | 7.0 | 0.00 | 0.00 | 0.00 | 65 | 1001.4 |
| 20260506082704 | 59 | 227 | 3.0 | 6.0 | 0.00 | 0.00 | 0.00 | 66 | 1001.4 |
| 20260506082204 | 59 | 195 | 2.0 | 5.0 | 0.00 | 0.00 | 0.00 | 65 | 1001.1 |
| 20260506081704 | 59 | 215 | 2.0 | 4.0 | 0.00 | 0.00 | 0.00 | 67 | 1001.2 |
| 20260506081500 | 59 | 231 | 2.0 | 4.0 | 0.00 | 0.00 | 0.00 | 67 | 1001.1 |
| 20260506080701 | 59 | 262 | 2.0 | 4.0 | 0.00 | 0.00 | 0.00 | 66 | 1001.1 |
| 20260506080201 | 59 | 222 | 2.0 | 4.0 | 0.00 | 0.00 | 0.00 | 66 | 1001.0 |
| 20260506073201 | 59 | 300 | 2.0 | 4.0 | 0.00 | 0.00 | 0.00 | 68 | 1001.4 |
| 20260506072701 | 59 | 288 | 2.0 | 5.0 | 0.00 | 0.00 | 0.00 | 66 | 1001.4 |
| 20260506072201 | 59 | 201 | 2.0 | 5.0 | 0.00 | 0.00 | 0.00 | 67 | 1001.4 |
| 20260506071701 | 59 | 269 | 2.0 | 5.0 | 0.00 | 0.00 | 0.00 | 67 | 1001.5 |
| 20260506071200 | 59 | 226 | 2.0 | 5.0 | 0.00 | 0.00 | 0.00 | 67 | 1001.5 |
| 20260506070700 | 59 | 233 | 2.0 | 4.0 | 0.00 | 0.00 | 0.00 | 68 | 1001.6 |
| 20260506070203 | 58 | 220 | 2.0 | 4.0 | 0.00 | 0.00 | 0.00 | 68 | 1001.6 |
| 20260506062200 | 59 | 223 | 2.0 | 4.0 | 0.00 | 0.00 | 0.00 | 69 | 1001.9 |
| 20260506061701 | 58 | 216 | 2.0 | 5.0 | 0.00 | 0.00 | 0.00 | 68 | 1001.9 |
| 20260506061201 | 59 | 227 | 2.0 | 5.0 | 0.00 | 0.00 | 0.00 | 69 | 1002.0 |
| 20260506060701 | 59 | 233 | 2.0 | 4.0 | 0.00 | 0.00 | 0.00 | 69 | 1001.9 |
| 20260506060200 | 59 | 213 | 2.0 | 4.0 | 0.00 | 0.00 | 0.00 | 69 | 1002.0 |
| 20260506051205 | 58 | 253 | 2.0 | 3.0 | 0.00 | 0.00 | 0.00 | 71 | 1002.5 |
| 20260506050705 | 58 | 269 | 2.0 | 3.0 | 0.00 | 0.00 | 0.00 | 72 | 1002.3 |
| 20260506050205 | 58 | 286 | 2.0 | 3.0 | 0.00 | 0.00 | 0.00 | 72 | 1002.3 |
| 20260506044701 | 59 | 250 | 1.0 | 2.0 | 0.00 | 0.00 | 0.00 | 71 | 1002.2 |
| 20260506044202 | 59 | 240 | 2.0 | 4.0 | 0.00 | 0.00 | 0.00 | 71 | 1002.2 |
| 20260506043701 | 59 | 245 | 2.0 | 4.0 | 0.00 | 0.00 | 0.00 | 71 | 1002.5 |
| 20260506043202 | 59 | 269 | 2.0 | 3.0 | 0.00 | 0.00 | 0.00 | 71 | 1002.5 |
| 20260506042701 | 59 | 283 | 2.0 | 3.0 | 0.00 | 0.00 | 0.00 | 70 | 1002.5 |
| 20260506042201 | 60 | 269 | 2.0 | 4.0 | 0.00 | 0.00 | 0.00 | 70 | 1002.6 |
| 20260506041701 | 60 | 269 | 2.0 | 4.0 | 0.00 | 0.00 | 0.00 | 69 | 1002.8 |
| 20260506041458 | 60 | 283 | 2.0 | 3.0 | 0.00 | 0.00 | 0.00 | 69 | 1002.6 |
| 20260506040809 | 61 | 279 | 1.0 | 2.0 | 0.00 | 0.00 | 0.00 | 68 | 1002.8 |
| 20260506040743 | 60 | 276 | 2.0 | 3.0 | 0.00 | 0.00 | 0.00 | 68 | 1002.7 |
| 20260506035950 | 61 | 269 | 1.0 | 3.0 | 0.00 | 0.00 | 0.00 | 67 | 1002.7 |
| 20260506035202 | 61 | 233 | 2.0 | 3.0 | 0.00 | 0.00 | 0.00 | 66 | 1002.7 |
| 20260506034700 | 61 | 253 | 2.0 | 3.0 | 0.00 | 0.00 | 0.00 | 66 | 1002.9 |
| 20260506034201 | 62 | 277 | 2.0 | 5.0 | 0.00 | 0.00 | 0.00 | 66 | 1002.8 |
| 20260506033700 | 62 | 258 | 2.0 | 5.0 | 0.00 | 0.00 | 0.00 | 65 | 1002.7 |
| 20260506033210 | 62 | 240 | 2.0 | 5.0 | 0.00 | 0.00 | 0.00 | 64 | 1002.6 |
| 20260506033202 | 62 | 257 | 2.0 | 5.0 | 0.00 | 0.00 | 0.00 | 65 | 1002.8 |
| 20260506033157 | 63 | 201 | 2.0 | 4.0 | 0.00 | 0.00 | 0.00 | 64 | 1002.6 |
| 20260506033150 | 62 | 209 | 2.0 | 5.0 | 0.00 | 0.00 | 0.00 | 64 | 1002.8 |
| 20260506031202 | 63 | 240 | 2.0 | 4.0 | 0.00 | 0.00 | 0.00 | 63 | 1002.7 |
| 20260506030702 | 63 | 257 | 2.0 | 4.0 | 0.00 | 0.00 | 0.00 | 62 | 1002.7 |
| 20260506030157 | 64 | 248 | 2.0 | 4.0 | 0.00 | 0.00 | 0.00 | 62 | 1002.6 |
| 20260506025652 | 64 | 245 | 2.0 | 4.0 | 0.00 | 0.00 | 0.00 | 61 | 1002.6 |
| 20260506025145 | 64 | 252 | 2.0 | 4.0 | 0.00 | 0.00 | 0.00 | 61 | 1002.6 |
| 20260506024638 | 65 | 214 | 3.0 | 6.0 | 0.00 | 0.00 | 0.00 | 60 | 1002.6 |
| 20260506024133 | 65 | 238 | 3.0 | 6.0 | 0.00 | 0.00 | 0.00 | 59 | 1002.6 |
| 20260506023629 | 65 | 231 | 2.0 | 5.0 | 0.00 | 0.00 | 0.00 | 59 | 1002.7 |
| 20260506023130 | 66 | 201 | 2.0 | 3.0 | 0.00 | 0.00 | 0.00 | 59 | 1002.7 |
| 20260506022630 | 66 | 236 | 2.0 | 4.0 | 0.00 | 0.00 | 0.00 | 58 | 1002.7 |
| 20260506022130 | 66 | 269 | 3.0 | 6.0 | 0.00 | 0.00 | 0.00 | 58 | 1002.7 |
| 20260506021630 | 67 | 253 | 3.0 | 6.0 | 0.00 | 0.00 | 0.00 | 57 | 1002.6 |
| 20260506021431 | 67 | 233 | 4.0 | 7.0 | 0.00 | 0.00 | 0.00 | 56 | 1002.7 |
| 20260506020630 | 67 | 213 | 4.0 | 7.0 | 0.00 | 0.00 | 0.00 | 56 | 1002.7 |
| 20260506020131 | 67 | 206 | 2.0 | 6.0 | 0.00 | 0.00 | 0.00 | 56 | 1002.6 |
| 20260506015927 | 67 | 223 | 2.0 | 4.0 | 0.00 | 0.00 | 0.00 | 55 | 1002.7 |
| 20260506015132 | 67 | 208 | 3.0 | 5.0 | 0.00 | 0.00 | 0.00 | 55 | 1002.6 |
| 20260506014629 | 67 | 245 | 2.0 | 5.0 | 0.00 | 0.00 | 0.00 | 55 | 1002.7 |
| 20260506014245 | 68 | 213 | 3.0 | 6.0 | 0.00 | 0.00 | 0.00 | 54 | 1002.7 |
| 20260506014134 | 67 | 220 | 2.0 | 4.0 | 0.00 | 0.00 | 0.00 | 54 | 1002.6 |
| 20260506014006 | 68 | 213 | 3.0 | 6.0 | 0.00 | 0.00 | 0.00 | 54 | 1002.7 |
| 20260506013130 | 68 | 221 | 3.0 | 6.0 | 0.00 | 0.00 | 0.00 | 54 | 1002.5 |
| 20260506012629 | 67 | 170 | 3.0 | 7.0 | 0.00 | 0.00 | 0.00 | 54 | 1002.3 |
| 20260506012130 | 67 | 227 | 3.0 | 7.0 | 0.00 | 0.00 | 0.00 | 54 | 1002.2 |
| 20260506011630 | 68 | 269 | 3.0 | 8.0 | 0.00 | 0.00 | 0.00 | 54 | 1002.1 |
| 20260506011127 | 68 | 226 | 3.0 | 8.0 | 0.00 | 0.00 | 0.00 | 54 | 1002.2 |
| 20260506010621 | 68 | 286 | 4.0 | 8.0 | 0.00 | 0.00 | 0.00 | 54 | 1002.1 |
| 20260506010114 | 68 | 238 | 4.0 | 8.0 | 0.00 | 0.00 | 0.00 | 54 | 1002.1 |
| 20260506005909 | 68 | 231 | 3.0 | 7.0 | 0.00 | 0.00 | 0.00 | 54 | 1002.0 |
| 20260506005109 | 68 | 262 | 3.0 | 6.0 | 0.00 | 0.00 | 0.00 | 54 | 1001.9 |
| 20260506004910 | 68 | 243 | 3.0 | 6.0 | 0.00 | 0.00 | 0.00 | 53 | 1002.0 |
| 20260506004109 | 68 | 226 | 3.0 | 6.0 | 0.00 | 0.00 | 0.00 | 54 | 1002.0 |
| 20260506003610 | 69 | 240 | 3.0 | 9.0 | 0.00 | 0.00 | 0.00 | 54 | 1002.0 |
| 20260506003110 | 69 | 227 | 4.0 | 9.0 | 0.00 | 0.00 | 0.00 | 53 | 1002.0 |
| 20260506002610 | 69 | 240 | 3.0 | 7.0 | 0.00 | 0.00 | 0.00 | 53 | 1002.1 |
| 20260506002110 | 69 | 226 | 4.0 | 7.0 | 0.00 | 0.00 | 0.00 | 53 | 1002.0 |
| 20260506001610 | 69 | 233 | 4.0 | 7.0 | 0.00 | 0.00 | 0.00 | 53 | 1001.9 |
| 20260506001111 | 69 | 245 | 3.0 | 6.0 | 0.00 | 0.00 | 0.00 | 53 | 1002.0 |
| 20260506000611 | 69 | 321 | 3.0 | 10.0 | 0.00 | 0.00 | 0.00 | 52 | 1001.9 |
| 20260506000110 | 69 | 222 | 4.0 | 10.0 | 0.00 | 0.00 | 0.00 | 52 | 1001.9 |
| 20260505235908 | 69 | 262 | 3.0 | 8.0 | 0.00 | 0.00 | 0.00 | 52 | 1001.9 |
| 20260505235111 | 69 | 226 | 3.0 | 7.0 | 0.00 | 0.00 | 0.00 | 52 | 1001.9 |
| 20260505234613 | 69 | 220 | 3.0 | 7.0 | 0.00 | 0.00 | 0.00 | 51 | 1001.9 |
| 20260505234109 | 69 | 236 | 4.0 | 7.0 | 0.00 | 0.00 | 0.00 | 52 | 1001.8 |
| 20260505233612 | 70 | 243 | 4.0 | 10.0 | 0.00 | 0.00 | 0.00 | 51 | 1001.7 |
| 20260505233107 | 70 | 216 | 4.0 | 10.0 | 0.00 | 0.00 | 0.00 | 50 | 1001.8 |
| 20260505232604 | 70 | 238 | 3.0 | 7.0 | 0.00 | 0.00 | 0.00 | 51 | 1001.7 |
| 20260505232104 | 70 | 197 | 3.0 | 7.0 | 0.00 | 0.00 | 0.00 | 50 | 1001.6 |
| 20260505231604 | 70 | 250 | 3.0 | 7.0 | 0.00 | 0.00 | 0.00 | 50 | 1001.7 |
| 20260505231103 | 70 | 274 | 4.0 | 7.0 | 0.00 | 0.00 | 0.00 | 49 | 1001.7 |
| 20260505230605 | 71 | 259 | 4.0 | 8.0 | 0.00 | 0.00 | 0.00 | 49 | 1001.6 |
| 20260505230112 | 71 | 293 | 3.0 | 8.0 | 0.00 | 0.00 | 0.00 | 48 | 1001.6 |
| 20260505225604 | 71 | 274 | 3.0 | 7.0 | 0.00 | 0.00 | 0.00 | 48 | 1001.5 |
| 20260505225102 | 71 | 217 | 4.0 | 8.0 | 0.00 | 0.00 | 0.00 | 48 | 1001.6 |
| 20260505224601 | 71 | 223 | 5.0 | 8.0 | 0.00 | 0.00 | 0.00 | 49 | 1001.5 |
| 20260505224102 | 71 | 206 | 6.0 | 13.0 | 0.00 | 0.00 | 0.00 | 47 | 1001.3 |
| 20260505223601 | 71 | 226 | 6.0 | 13.0 | 0.00 | 0.00 | 0.00 | 47 | 1001.2 |
| 20260505223102 | 72 | 233 | 6.0 | 13.0 | 0.00 | 0.00 | 0.00 | 46 | 1001.1 |
| 20260505222602 | 72 | 200 | 8.0 | 15.0 | 0.00 | 0.00 | 0.00 | 46 | 1001.2 |
| 20260505222400 | 72 | 224 | 8.0 | 16.0 | 0.00 | 0.00 | 0.00 | 46 | 1001.1 |
| 20260505221601 | 72 | 248 | 9.0 | 23.0 | 0.00 | 0.00 | 0.00 | 46 | 1001.1 |
| 20260505221102 | 72 | 234 | 9.0 | 23.0 | 0.00 | 0.00 | 0.00 | 46 | 1001.1 |
| 20260505220602 | 72 | 240 | 7.0 | 20.0 | 0.00 | 0.00 | 0.00 | 46 | 1001.1 |
| 20260505220404 | 72 | 200 | 6.0 | 12.0 | 0.00 | 0.00 | 0.00 | 46 | 1001.1 |
| 20260505215603 | 72 | 221 | 6.0 | 12.0 | 0.00 | 0.00 | 0.00 | 46 | 1000.9 |
| 20260505215103 | 73 | 223 | 6.0 | 12.0 | 0.00 | 0.00 | 0.00 | 46 | 1000.8 |
| 20260505214603 | 73 | 223 | 8.0 | 15.0 | 0.00 | 0.00 | 0.00 | 45 | 1000.9 |
| 20260505214108 | 74 | 201 | 8.0 | 16.0 | 0.00 | 0.00 | 0.00 | 45 | 1000.9 |
| 20260505213601 | 74 | 220 | 7.0 | 16.0 | 0.00 | 0.00 | 0.00 | 44 | 1000.9 |
| 20260505213417 | 74 | 226 | 9.0 | 21.0 | 0.00 | 0.00 | 0.00 | 45 | 1000.9 |
| 20260505212601 | 74 | 231 | 11.0 | 23.0 | 0.00 | 0.00 | 0.00 | 44 | 1001.0 |
| 20260505212104 | 75 | 257 | 11.0 | 23.0 | 0.00 | 0.00 | 0.00 | 43 | 1001.0 |
| 20260505211601 | 75 | 238 | 11.0 | 25.0 | 0.00 | 0.00 | 0.00 | 42 | 1000.9 |
| 20260505211102 | 76 | 223 | 11.0 | 25.0 | 0.00 | 0.00 | 0.00 | 43 | 1000.8 |
| 20260505210601 | 76 | 217 | 10.0 | 21.0 | 0.00 | 0.00 | 0.00 | 40 | 1000.7 |
| 20260505210104 | 76 | 229 | 10.0 | 21.0 | 0.00 | 0.00 | 0.00 | 40 | 1000.5 |
| 20260505205603 | 76 | 241 | 13.0 | 33.0 | 0.00 | 0.00 | 0.00 | 40 | 1000.3 |
| 20260505205104 | 75 | 190 | 15.0 | 33.0 | 0.00 | 0.00 | 0.00 | 40 | 1000.1 |
| 20260505204602 | 75 | 227 | 13.0 | 35.0 | 0.00 | 0.00 | 0.00 | 40 | 1000.2 |
| 20260505204103 | 74 | 191 | 12.0 | 35.0 | 0.00 | 0.00 | 0.00 | 41 | 1000.3 |
| 20260505203605 | 74 | 210 | 11.0 | 24.0 | 0.00 | 0.00 | 0.00 | 41 | 1000.3 |
| 20260505203102 | 73 | 236 | 12.0 | 24.0 | 0.00 | 0.00 | 0.00 | 40 | 1000.3 |
| 20260505202851 | 74 | 219 | 10.0 | 23.0 | 0.00 | 0.00 | 0.00 | 40 | 1000.3 |
| 20260505202102 | 74 | 182 | 9.0 | 23.0 | 0.00 | 0.00 | 0.00 | 40 | 1000.5 |
| 20260505201604 | 74 | 224 | 10.0 | 19.0 | 0.00 | 0.00 | 0.00 | 40 | 1000.5 |
| 20260505201102 | 74 | 231 | 11.0 | 23.0 | 0.00 | 0.00 | 0.00 | 39 | 1000.3 |
| 20260505200601 | 74 | 197 | 12.0 | 24.0 | 0.00 | 0.00 | 0.00 | 39 | 1000.2 |
| 20260505195601 | 75 | 225 | 10.0 | 28.0 | 0.00 | 0.00 | 0.00 | 38 | 1000.2 |
| 20260505195103 | 76 | 243 | 11.0 | 28.0 | 0.00 | 0.00 | 0.00 | 37 | 1000.3 |
| 20260505194602 | 77 | 89 | 13.0 | 27.0 | 0.00 | 0.00 | 0.00 | 37 | 1000.1 |
| 20260505194104 | 76 | 208 | 15.0 | 29.0 | 0.00 | 0.00 | 0.00 | 37 | 1000.2 |
| 20260505193602 | 76 | 215 | 17.0 | 36.0 | 0.00 | 0.00 | 0.00 | 37 | 1000.3 |
| 20260505193102 | 77 | 252 | 12.0 | 36.0 | 0.00 | 0.00 | 0.00 | 36 | 1000.3 |
| 20260505192605 | 77 | 218 | 12.0 | 30.0 | 0.00 | 0.00 | 0.00 | 34 | 1000.3 |
| 20260505192106 | 0 | 0.0 | 0.0 | 0.00 | 0.00 | 0.00 | |||
| 20260505190028 | 75 | 262 | 15.0 | 41.0 | 0.00 | 0.00 | 0.00 | 38 | 1000.8 |
| 20260505185204 | 76 | 212 | 13.0 | 41.0 | 0.00 | 0.00 | 0.00 | 36 | 1000.8 |
| 20260505184702 | 76 | 240 | 12.0 | 29.0 | 0.00 | 0.00 | 0.00 | 38 | 1000.9 |
| 20260505184202 | 76 | 219 | 11.0 | 24.0 | 0.00 | 0.00 | 0.00 | 39 | 1000.9 |
| 20260505183959 | 76 | 152 | 12.0 | 27.0 | 0.00 | 0.00 | 0.00 | 41 | 1001.0 |
| 20260505183202 | 75 | 259 | 13.0 | 29.0 | 0.00 | 0.00 | 0.00 | 40 | 1001.2 |
| 20260505182958 | 75 | 233 | 11.0 | 29.0 | 0.00 | 0.00 | 0.00 | 41 | 1001.2 |
| 20260505182153 | 76 | 183 | 9.0 | 19.0 | 0.00 | 0.00 | 0.00 | 40 | 1001.3 |
| 20260505181647 | 75 | 187 | 9.0 | 18.0 | 0.00 | 0.00 | 0.00 | 43 | 1001.4 |
| 20260505181141 | 74 | 200 | 10.0 | 23.0 | 0.00 | 0.00 | 0.00 | 44 | 1001.6 |
| 20260505180635 | 74 | 243 | 12.0 | 27.0 | 0.00 | 0.00 | 0.00 | 44 | 1001.8 |
| 20260505180135 | 74 | 285 | 13.0 | 27.0 | 0.00 | 0.00 | 0.00 | 45 | 1001.6 |
| 20260505175635 | 74 | 229 | 13.0 | 26.0 | 0.00 | 0.00 | 0.00 | 45 | 1001.9 |
| 20260505175135 | 75 | 201 | 13.0 | 21.0 | 0.00 | 0.00 | 0.00 | 44 | 1001.8 |
| 20260505174937 | 75 | 272 | 13.0 | 25.0 | 0.00 | 0.00 | 0.00 | 45 | 1001.8 |
| 20260505174133 | 75 | 233 | 11.0 | 25.0 | 0.00 | 0.00 | 0.00 | 43 | 1001.7 |
| 20260505173636 | 75 | 222 | 10.0 | 24.0 | 0.00 | 0.00 | 0.00 | 47 | 1001.8 |
| 20260505173135 | 75 | 231 | 11.0 | 24.0 | 0.00 | 0.00 | 0.00 | 45 | 1001.6 |
| 20260505172932 | 75 | 269 | 11.0 | 24.0 | 0.00 | 0.00 | 0.00 | 45 | 1001.6 |
| 20260505172432 | 75 | 233 | 11.0 | 27.0 | 0.00 | 0.00 | 0.00 | 46 | 1001.6 |
| 20260505171635 | 74 | 186 | 12.0 | 27.0 | 0.00 | 0.00 | 0.00 | 46 | 1001.8 |
| 20260505171135 | 74 | 151 | 13.0 | 26.0 | 0.00 | 0.00 | 0.00 | 47 | 1001.6 |
| 20260505170634 | 74 | 218 | 14.0 | 27.0 | 0.00 | 0.00 | 0.00 | 47 | 1001.7 |
| 20260505170135 | 74 | 176 | 12.0 | 27.0 | 0.00 | 0.00 | 0.00 | 48 | 1001.6 |
| 20260505165635 | 74 | 213 | 13.0 | 31.0 | 0.00 | 0.00 | 0.00 | 48 | 1001.7 |
| 20260505165135 | 75 | 229 | 10.0 | 31.0 | 0.00 | 0.00 | 0.00 | 46 | 1001.9 |
| 20260505164634 | 75 | 238 | 9.0 | 23.0 | 0.00 | 0.00 | 0.00 | 48 | 1002.0 |
| 20260505164132 | 74 | 250 | 10.0 | 23.0 | 0.00 | 0.00 | 0.00 | 49 | 1002.0 |
| 20260505163633 | 74 | 255 | 11.0 | 25.0 | 0.00 | 0.00 | 0.00 | 49 | 1002.1 |
| 20260505163132 | 74 | 219 | 11.0 | 25.0 | 0.00 | 0.00 | 0.00 | 49 | 1002.1 |
| 20260505162632 | 74 | 216 | 10.0 | 20.0 | 0.00 | 0.00 | 0.00 | 48 | 1002.0 |
| 20260505162132 | 73 | 290 | 11.0 | 29.0 | 0.00 | 0.00 | 0.00 | 49 | 1002.2 |
| 20260505161930 | 73 | 203 | 13.0 | 29.0 | 0.00 | 0.00 | 0.00 | 49 | 1002.5 |
| 20260505161133 | 73 | 274 | 14.0 | 32.0 | 0.00 | 0.00 | 0.00 | 49 | 1002.5 |
| 20260505160632 | 73 | 243 | 12.0 | 32.0 | 0.00 | 0.00 | 0.00 | 49 | 1002.5 |
| 20260505160133 | 73 | 224 | 11.0 | 24.0 | 0.00 | 0.00 | 0.00 | 48 | 1002.6 |
| 20260505153230 | 71 | 260 | 11.0 | 25.0 | 0.00 | 0.00 | 0.00 | 53 | 1002.7 |
| 20260505153209 | 72 | 238 | 9.0 | 22.0 | 0.00 | 0.00 | 0.00 | 51 | 1002.6 |
| 20260505152431 | 71 | 215 | 13.0 | 28.0 | 0.00 | 0.00 | 0.00 | 54 | 1002.8 |
| 20260505151630 | 70 | 169 | 14.0 | 28.0 | 0.00 | 0.00 | 0.00 | 53 | 1002.7 |
| 20260505151437 | 70 | 233 | 14.0 | 27.0 | 0.00 | 0.00 | 0.00 | 54 | 1002.8 |
| 20260505150631 | 70 | 213 | 13.0 | 27.0 | 0.00 | 0.00 | 0.00 | 54 | 1002.8 |
| 20260505150130 | 70 | 227 | 12.0 | 25.0 | 0.00 | 0.00 | 0.00 | 55 | 1002.8 |
| 20260505140629 | 67 | 200 | 9.0 | 20.0 | 0.00 | 0.00 | 0.00 | 58 | 1002.8 |
| 20260505140131 | 67 | 222 | 10.0 | 26.0 | 0.00 | 0.00 | 0.00 | 58 | 1002.8 |
| 20260505130129 | 65 | 253 | 7.0 | 14.0 | 0.00 | 0.00 | 0.00 | 64 | 1003.3 |
| 20260505124629 | 64 | 220 | 7.0 | 14.0 | 0.00 | 0.00 | 0.00 | 66 | 1003.2 |
| 20260505124540 | 63 | 207 | 6.0 | 14.0 | 0.00 | 0.00 | 0.00 | 66 | 1003.2 |
| 20260505124211 | 63 | 231 | 6.0 | 14.0 | 0.00 | 0.00 | 0.00 | 65 | 1003.1 |
| 20260505123129 | 62 | 202 | 6.0 | 14.0 | 0.00 | 0.00 | 0.00 | 67 | 1003.1 |
| 20260505122629 | 62 | 216 | 6.0 | 14.0 | 0.00 | 0.00 | 0.00 | 66 | 1003.0 |
| 20260505122129 | 62 | 190 | 5.0 | 10.0 | 0.00 | 0.00 | 0.00 | 70 | 1002.9 |
| 20260505121630 | 61 | 189 | 5.0 | 11.0 | 0.00 | 0.00 | 0.00 | 69 | 1003.0 |
| 20260505121130 | 61 | 187 | 6.0 | 11.0 | 0.00 | 0.00 | 0.00 | 69 | 1003.0 |
| 20260505120629 | 60 | 248 | 6.0 | 13.0 | 0.00 | 0.00 | 0.00 | 68 | 1003.0 |
| 20260505120129 | 60 | 181 | 6.0 | 13.0 | 0.00 | 0.00 | 0.00 | 70 | 1003.1 |
| 20260505115629 | 60 | 213 | 6.0 | 12.0 | 0.00 | 0.00 | 0.00 | 69 | 1003.2 |
| 20260505115429 | 59 | 220 | 6.0 | 11.0 | 0.00 | 0.00 | 0.00 | 71 | 1003.2 |
| 20260505114630 | 59 | 198 | 6.0 | 11.0 | 0.00 | 0.00 | 0.00 | 71 | 1003.3 |
| 20260505114130 | 58 | 187 | 5.0 | 10.0 | 0.00 | 0.00 | 0.00 | 72 | 1003.2 |
| 20260505113627 | 58 | 185 | 5.0 | 9.0 | 0.00 | 0.00 | 0.00 | 72 | 1003.2 |